| time (UTC) | temp F | wind direction | speed knots | gust knots | rain 1hr in | rain 24hr in | rain mn in | humidity % | barometer mb |
| 20260504050502 | 46 | 184 | 0.9 | 2.6 | 0.00 | 0.00 | 0.00 | 61 | 1014.9 |
| 20260504050003 | 46 | 184 | 1.7 | 2.6 | 0.00 | 0.00 | 0.00 | 63 | 1015.0 |
| 20260504045503 | 46 | 184 | 1.7 | 2.6 | 0.00 | 0.00 | 0.00 | 62 | 1015.0 |
| 20260504045003 | 47 | 184 | 1.7 | 2.6 | 0.00 | 0.00 | 0.00 | 64 | 1014.9 |
| 20260504044003 | 47 | 184 | 0.0 | 1.7 | 0.00 | 0.00 | 0.00 | 56 | 1014.8 |
| 20260504043502 | 47 | 184 | 0.9 | 2.6 | 0.00 | 0.00 | 0.00 | 55 | 1014.8 |
| 20260504043003 | 47 | 184 | 0.9 | 2.6 | 0.00 | 0.00 | 0.00 | 56 | 1014.5 |
| 20260504042502 | 47 | 184 | 0.9 | 1.7 | 0.00 | 0.00 | 0.00 | 57 | 1014.6 |
| 20260504041003 | 46 | 184 | 1.7 | 2.6 | 0.00 | 0.00 | 0.00 | 56 | 1014.8 |
| 20260504040502 | 46 | 185 | 2.6 | 3.5 | 0.00 | 0.00 | 0.00 | 56 | 1014.9 |
| 20260504040006 | 46 | 185 | 2.6 | 3.5 | 0.00 | 0.00 | 0.00 | 59 | 1014.8 |
| 20260504035502 | 47 | 184 | 2.6 | 3.5 | 0.00 | 0.00 | 0.00 | 58 | 1014.9 |
| 20260504035004 | 47 | 183 | 1.7 | 3.5 | 0.00 | 0.00 | 0.00 | 56 | 1014.8 |
| 20260504034502 | 47 | 183 | 0.9 | 2.6 | 0.00 | 0.00 | 0.00 | 54 | 1014.9 |
| 20260504034003 | 47 | 182 | 0.9 | 2.6 | 0.00 | 0.00 | 0.00 | 55 | 1014.8 |
| 20260504033003 | 47 | 182 | 0.9 | 1.7 | 0.00 | 0.00 | 0.00 | 53 | 1014.5 |
| 20260504032503 | 47 | 182 | 0.9 | 1.7 | 0.00 | 0.00 | 0.00 | 54 | 1014.6 |
| 20260504032003 | 46 | 182 | 0.9 | 1.7 | 0.00 | 0.00 | 0.00 | 52 | 1014.6 |
| 20260504031503 | 46 | 182 | 0.9 | 1.7 | 0.00 | 0.00 | 0.00 | 53 | 1014.8 |
| 20260504031003 | 46 | 182 | 0.9 | 1.7 | 0.00 | 0.00 | 0.00 | 54 | 1014.9 |
| 20260504030502 | 46 | 182 | 0.9 | 2.6 | 0.00 | 0.00 | 0.00 | 54 | 1014.9 |
| 20260504030003 | 46 | 182 | 0.9 | 2.6 | 0.00 | 0.00 | 0.00 | 53 | 1014.8 |
| 20260504025502 | 46 | 182 | 0.9 | 2.6 | 0.00 | 0.00 | 0.00 | 54 | 1014.6 |
| 20260504025003 | 46 | 182 | 0.0 | 1.7 | 0.00 | 0.00 | 0.00 | 53 | 1014.5 |
| 20260504024004 | 46 | 182 | 0.0 | 0.9 | 0.00 | 0.00 | 0.00 | 50 | 1014.7 |
| 20260504023502 | 46 | 182 | 0.9 | 1.7 | 0.00 | 0.00 | 0.00 | 50 | 1014.7 |
| 20260504022503 | 46 | 182 | 0.0 | 1.7 | 0.00 | 0.00 | 0.00 | 50 | 1014.7 |
| 20260504022003 | 47 | 182 | 0.9 | 1.7 | 0.00 | 0.00 | 0.00 | 49 | 1014.5 |
| 20260504021502 | 47 | 193 | 1.7 | 5.2 | 0.00 | 0.00 | 0.00 | 49 | 1014.4 |
| 20260504020003 | 47 | 292 | 0.9 | 3.5 | 0.00 | 0.00 | 0.00 | 49 | 1014.4 |
| 20260504015502 | 48 | 349 | 0.9 | 2.6 | 0.00 | 0.00 | 0.00 | 49 | 1014.4 |
| 20260504014503 | 48 | 350 | 0.9 | 2.6 | 0.00 | 0.00 | 0.00 | 45 | 1014.3 |
| 20260504014002 | 48 | 350 | 0.9 | 1.7 | 0.00 | 0.00 | 0.00 | 46 | 1014.3 |
| 20260504013004 | 48 | 350 | 0.9 | 1.7 | 0.00 | 0.00 | 0.00 | 46 | 1014.1 |
| 20260504012503 | 48 | 350 | 0.9 | 2.6 | 0.00 | 0.00 | 0.00 | 46 | 1014.1 |
| 20260504012003 | 48 | 349 | 0.9 | 2.6 | 0.00 | 0.00 | 0.00 | 46 | 1014.0 |
| 20260504011503 | 48 | 348 | 0.9 | 1.7 | 0.00 | 0.00 | 0.00 | 46 | 1013.9 |
| 20260504010503 | 48 | 342 | 0.9 | 1.7 | 0.00 | 0.00 | 0.00 | 47 | 1013.9 |
| 20260504010003 | 49 | 341 | 0.0 | 1.7 | 0.00 | 0.00 | 0.00 | 46 | 1014.0 |
| 20260504004501 | 50 | 341 | 0.9 | 1.7 | 0.00 | 0.00 | 0.00 | 45 | 1013.9 |
| 20260504004002 | 50 | 341 | 0.9 | 1.7 | 0.00 | 0.00 | 0.00 | 45 | 1013.8 |
| 20260504003502 | 50 | 341 | 0.9 | 1.7 | 0.00 | 0.00 | 0.00 | 45 | 1013.7 |
| 20260504002503 | 52 | 341 | 0.9 | 1.7 | 0.00 | 0.00 | 0.00 | 47 | 1013.7 |
| 20260504002003 | 53 | 341 | 0.9 | 1.7 | 0.00 | 0.00 | 0.00 | 46 | 1013.8 |
| 20260504001502 | 54 | 341 | 0.9 | 1.7 | 0.00 | 0.00 | 0.00 | 43 | 1013.8 |
| 20260504000501 | 56 | 341 | 0.9 | 1.7 | 0.00 | 0.00 | 0.00 | 40 | 1013.7 |
| 20260504000002 | 57 | 341 | 0.9 | 1.7 | 0.00 | 0.00 | 0.00 | 40 | 1013.7 |
| 20260503235502 | 59 | 341 | 0.9 | 1.7 | 0.00 | 0.00 | 0.00 | 38 | 1013.7 |
| 20260503235002 | 61 | 341 | 0.0 | 1.7 | 0.00 | 0.00 | 0.00 | 34 | 1013.7 |
| 20260503234502 | 62 | 341 | 0.0 | 1.7 | 0.00 | 0.00 | 0.00 | 26 | 1013.6 |
| 20260503233002 | 62 | 341 | 0.9 | 1.7 | 0.00 | 0.00 | 0.00 | 26 | 1013.6 |
| 20260503232502 | 62 | 341 | 0.9 | 1.7 | 0.00 | 0.00 | 0.00 | 28 | 1013.6 |
| 20260503232003 | 62 | 342 | 0.9 | 2.6 | 0.00 | 0.00 | 0.00 | 26 | 1013.5 |
| 20260503231502 | 62 | 342 | 1.7 | 2.6 | 0.00 | 0.00 | 0.00 | 29 | 1013.5 |
| 20260503230502 | 63 | 345 | 1.7 | 3.5 | 0.00 | 0.00 | 0.00 | 27 | 1013.5 |
| 20260503225503 | 63 | 329 | 0.9 | 2.6 | 0.00 | 0.00 | 0.00 | 29 | 1013.4 |
| 20260503225003 | 62 | 306 | 1.7 | 3.5 | 0.00 | 0.00 | 0.00 | 28 | 1013.4 |
| 20260503224003 | 62 | 276 | 2.6 | 7.0 | 0.00 | 0.00 | 0.00 | 27 | 1013.4 |
| 20260503223003 | 62 | 324 | 2.6 | 7.0 | 0.00 | 0.00 | 0.00 | 25 | 1013.4 |
| 20260503222502 | 62 | 314 | 3.5 | 7.8 | 0.00 | 0.00 | 0.00 | 26 | 1013.4 |
| 20260503222004 | 62 | 310 | 3.5 | 8.7 | 0.00 | 0.00 | 0.00 | 28 | 1013.4 |
| 20260503221003 | 62 | 306 | 5.2 | 8.7 | 0.00 | 0.00 | 0.00 | 29 | 1013.5 |
| 20260503220502 | 62 | 307 | 6.1 | 10.4 | 0.00 | 0.00 | 0.00 | 27 | 1013.5 |
| 20260503220004 | 62 | 279 | 7.0 | 13.9 | 0.00 | 0.00 | 0.00 | 25 | 1013.6 |
| 20260503215503 | 61 | 263 | 7.8 | 13.9 | 0.00 | 0.00 | 0.00 | 25 | 1013.4 |
| 20260503215003 | 62 | 271 | 7.8 | 13.9 | 0.00 | 0.00 | 0.00 | 25 | 1013.6 |
| 20260503214503 | 62 | 267 | 7.0 | 11.3 | 0.00 | 0.00 | 0.00 | 25 | 1013.5 |
| 20260503213502 | 62 | 302 | 3.5 | 10.4 | 0.00 | 0.00 | 0.00 | 29 | 1013.6 |
| 20260503212502 | 62 | 273 | 5.2 | 9.6 | 0.00 | 0.00 | 0.00 | 28 | 1013.6 |
| 20260503212003 | 62 | 272 | 6.1 | 13.9 | 0.00 | 0.00 | 0.00 | 25 | 1013.7 |
| 20260503211502 | 61 | 279 | 7.8 | 13.9 | 0.00 | 0.00 | 0.00 | 26 | 1013.7 |
| 20260503210502 | 62 | 273 | 7.8 | 16.5 | 0.00 | 0.00 | 0.00 | 27 | 1013.8 |
| 20260503210003 | 61 | 278 | 7.8 | 16.5 | 0.00 | 0.00 | 0.00 | 27 | 1013.8 |
| 20260503205003 | 62 | 291 | 5.2 | 11.3 | 0.00 | 0.00 | 0.00 | 27 | 1013.7 |
| 20260503204502 | 61 | 267 | 6.1 | 11.3 | 0.00 | 0.00 | 0.00 | 29 | 1013.8 |
| 20260503204003 | 61 | 262 | 6.1 | 10.4 | 0.00 | 0.00 | 0.00 | 30 | 1013.8 |
| 20260503203502 | 61 | 278 | 7.0 | 11.3 | 0.00 | 0.00 | 0.00 | 28 | 1013.9 |
| 20260503203003 | 61 | 278 | 6.1 | 11.3 | 0.00 | 0.00 | 0.00 | 28 | 1013.9 |
| 20260503202502 | 61 | 277 | 3.5 | 11.3 | 0.00 | 0.00 | 0.00 | 27 | 1013.9 |
| 20260503202003 | 61 | 327 | 3.5 | 10.4 | 0.00 | 0.00 | 0.00 | 27 | 1014.1 |
| 20260503201502 | 60 | 344 | 3.5 | 11.3 | 0.00 | 0.00 | 0.00 | 29 | 1014.3 |
| 20260503201002 | 60 | 299 | 6.1 | 11.3 | 0.00 | 0.00 | 0.00 | 28 | 1014.1 |
| 20260503200501 | 60 | 280 | 6.1 | 14.8 | 0.00 | 0.00 | 0.00 | 32 | 1014.2 |
| 20260503200003 | 60 | 275 | 6.1 | 14.8 | 0.00 | 0.00 | 0.00 | 28 | 1014.3 |
| 20260503195501 | 60 | 277 | 7.0 | 15.6 | 0.00 | 0.00 | 0.00 | 33 | 1014.4 |
| 20260503195003 | 60 | 276 | 7.8 | 15.6 | 0.00 | 0.00 | 0.00 | 28 | 1014.5 |
| 20260503194502 | 59 | 278 | 8.7 | 14.8 | 0.00 | 0.00 | 0.00 | 27 | 1014.4 |
| 20260503194003 | 59 | 278 | 8.7 | 14.8 | 0.00 | 0.00 | 0.00 | 30 | 1014.5 |
| 20260503193002 | 59 | 264 | 7.8 | 15.6 | 0.00 | 0.00 | 0.00 | 28 | 1014.7 |
| 20260503192502 | 60 | 255 | 7.0 | 13.9 | 0.00 | 0.00 | 0.00 | 30 | 1014.8 |
| 20260503192003 | 59 | 270 | 5.2 | 13.9 | 0.00 | 0.00 | 0.00 | 32 | 1014.9 |
| 20260503191502 | 59 | 295 | 3.5 | 9.6 | 0.00 | 0.00 | 0.00 | 31 | 1015.1 |
| 20260503191003 | 59 | 256 | 7.0 | 17.4 | 0.00 | 0.00 | 0.00 | 33 | 1015.2 |
| 20260503190502 | 59 | 250 | 7.0 | 17.4 | 0.00 | 0.00 | 0.00 | 32 | 1015.3 |
| 20260503190003 | 59 | 275 | 5.2 | 13.9 | 0.00 | 0.00 | 0.00 | 34 | 1015.2 |
| 20260503185502 | 59 | 266 | 5.2 | 11.3 | 0.00 | 0.00 | 0.00 | 32 | 1015.3 |
| 20260503185004 | 58 | 250 | 5.2 | 11.3 | 0.00 | 0.00 | 0.00 | 35 | 1015.4 |
| 20260503184502 | 57 | 260 | 7.0 | 13.0 | 0.00 | 0.00 | 0.00 | 37 | 1015.4 |
| 20260503184003 | 57 | 254 | 7.8 | 13.0 | 0.00 | 0.00 | 0.00 | 35 | 1015.6 |
| 20260503183502 | 58 | 268 | 7.8 | 13.0 | 0.00 | 0.00 | 0.00 | 40 | 1015.6 |
| 20260503182502 | 58 | 261 | 7.0 | 14.8 | 0.00 | 0.00 | 0.00 | 35 | 1015.7 |
| 20260503181503 | 58 | 295 | 6.1 | 9.6 | 0.00 | 0.00 | 0.00 | 37 | 1015.5 |
| 20260503181002 | 57 | 283 | 7.0 | 14.8 | 0.00 | 0.00 | 0.00 | 35 | 1015.6 |
| 20260503180003 | 57 | 296 | 6.1 | 15.6 | 0.00 | 0.00 | 0.00 | 36 | 1015.7 |
| 20260503175502 | 56 | 312 | 5.2 | 15.6 | 0.00 | 0.00 | 0.00 | 37 | 1015.7 |
| 20260503175002 | 56 | 315 | 6.1 | 13.9 | 0.00 | 0.00 | 0.00 | 35 | 1015.7 |
| 20260503174503 | 56 | 306 | 7.8 | 13.9 | 0.00 | 0.00 | 0.00 | 33 | 1015.7 |
| 20260503174003 | 56 | 285 | 7.8 | 13.9 | 0.00 | 0.00 | 0.00 | 36 | 1015.8 |
| 20260503173502 | 56 | 244 | 7.0 | 16.5 | 0.00 | 0.00 | 0.00 | 37 | 1015.7 |
| 20260503173004 | 56 | 233 | 6.1 | 16.5 | 0.00 | 0.00 | 0.00 | 40 | 1015.7 |
| 20260503172502 | 56 | 240 | 6.1 | 13.9 | 0.00 | 0.00 | 0.00 | 40 | 1015.8 |
| 20260503172003 | 55 | 232 | 6.1 | 13.9 | 0.00 | 0.00 | 0.00 | 41 | 1015.9 |
| 20260503171002 | 55 | 253 | 6.1 | 13.0 | 0.00 | 0.00 | 0.00 | 36 | 1016.0 |
| 20260503170502 | 55 | 275 | 6.1 | 11.3 | 0.00 | 0.00 | 0.00 | 35 | 1016.0 |
| 20260503151002 | 51 | 299 | 6.1 | 10.4 | 0.00 | 0.00 | 0.00 | 41 | 1017.1 |
| 20260503150502 | 51 | 305 | 5.2 | 11.3 | 0.00 | 0.00 | 0.00 | 45 | 1017.3 |
| 20260503131004 | 46 | 313 | 5.2 | 10.4 | 0.00 | 0.00 | 0.00 | 49 | 1017.1 |
| 20260503130502 | 46 | 310 | 5.2 | 9.6 | 0.00 | 0.00 | 0.00 | 51 | 1017.0 |
| 20260503110502 | 40 | 266 | 1.7 | 2.6 | 0.00 | 0.00 | 0.00 | 63 | 1016.2 |
| 20260503081503 | 42 | 293 | 3.5 | 8.7 | 0.00 | 0.00 | 0.00 | 58 | 1014.5 |
| 20260503081004 | 42 | 288 | 3.5 | 8.7 | 0.00 | 0.00 | 0.00 | 60 | 1014.6 |
| 20260503072504 | 41 | 305 | 1.7 | 3.5 | 0.00 | 0.00 | 0.00 | 61 | 1014.3 |
| 20260503072003 | 42 | 311 | 1.7 | 3.5 | 0.00 | 0.00 | 0.00 | 61 | 1014.2 |
| 20260503071502 | 42 | 303 | 1.7 | 7.0 | 0.00 | 0.00 | 0.00 | 61 | 1014.1 |
| 20260503071003 | 42 | 302 | 2.6 | 8.7 | 0.00 | 0.00 | 0.00 | 61 | 1014.1 |
| 20260503070502 | 42 | 314 | 2.6 | 8.7 | 0.00 | 0.00 | 0.00 | 60 | 1014.1 |